Weather History for Henderson, NV

Change the Weather History Date:

Saturday, April 12, 2014

  Actual Average (KLAS) Record (KLAS)
Temperature  
Mean Temperature 72 °F 66 °F  
Max Temperature 84 °F 77 °F 91 °F (1990)
Min Temperature 61 °F 55 °F 32 °F (1967)
Degree Days  
Heating Degree Days 0 2  
Month to date heating degree days 38  
Since 1 July heating degree days 1918  
Cooling Degree Days 8 3  
Month to date cooling degree days 31  
Year to date cooling degree days 62  
Growing Degree Days 22 (Base 50)    
Moisture  
Dew Point 21 °F    
Average Humidity 14    
Maximum Humidity 27    
Minimum Humidity 7    
Precipitation  
Precipitation 0.00 in 0.00 in 0.97 in (1965)
Month to date precipitation 0.08  
Year to date precipitation 1.82  
Snow  
Snow 0.00 in 0.00 in 0.00 in ()
Month to date snowfall 0.0  
Since 1 July snowfall 0.3  
Snow Depth -    
Sea Level Pressure  
Sea Level Pressure 29.64 in    
Wind  
Wind Speed 11 mph (SSW)    
Max Wind Speed 18 mph    
Max Gust Speed 20 mph    
Visibility 10 miles    
Events Rain    
T = Trace of Precipitation, MM = Missing Value Source: NWS Daily Summary

Daily Weather History Graph

Daily Weather History Graph

Search for Another Location

Airport:

Trip Planner

Search our weather history database for the weather conditions in past years. The results will help you decide how hot, cold, wet, or windy it might be!

Date:

Astronomy

Apr. 12, 2014 Rise Set
Actual Time 6:11 AM PDT 7:11 PM PDT
Civil Twilight 5:45 AM PDT 7:38 PM PDT
Nautical Twilight 5:14 AM PDT 8:09 PM PDT
Astronomical Twilight 4:41 AM PDT 8:41 PM PDT
Moon 4:58 PM PDT (4/12) 4:35 AM PDT (4/12)
Length of Visible Light 13h 52m
Length of Day
13h 00m
Waxing Gibbous, 93% of the Moon is Illuminated
Apr 12
Waxing Gibbous
Apr 15
Full
Apr 22
Last Quarter
Apr 28
New
May 6
First Quarter

Hourly Weather History & Observations

Time (PDT) Temp. Dew Point Humidity Pressure Visibility Wind Dir Wind Speed Gust Speed Precip Events Conditions
12:56 AM 70.9 °F 14.0 °F 11% 29.70 in 10.0 mi SSE 11.5 mph - 0.00 in Rain Heavy Rain
1:56 AM 70.9 °F 13.1 °F 11% 29.68 in 10.0 mi South 15.0 mph - 0.00 in Rain Heavy Rain
2:56 AM 65.8 °F 14.0 °F 13% 29.69 in 10.0 mi Calm Calm - 0.00 in Rain Light Rain
3:56 AM 66.9 °F 14.0 °F 13% 29.67 in 10.0 mi South 16.1 mph - 0.00 in   Clear
4:56 AM 65.8 °F 18.1 °F 16% 29.66 in 10.0 mi South 13.8 mph - 0.00 in Rain Heavy Rain
5:56 AM 61.9 °F 18.1 °F 18% 29.66 in 10.0 mi SSW 10.4 mph - 0.00 in Rain Light Rain
6:56 AM 63.9 °F 21.0 °F 19% 29.67 in 10.0 mi South 11.5 mph - 0.00 in Rain Heavy Rain
7:56 AM 68.0 °F 23.0 °F 18% 29.68 in 10.0 mi SW 15.0 mph - 0.00 in Rain Light Rain
8:56 AM 72.0 °F 24.1 °F 17% 29.69 in 10.0 mi SW 12.7 mph - 0.00 in   Clear
9:56 AM 74.8 °F 24.1 °F 15% 29.70 in 10.0 mi SW 13.8 mph - N/A   Clear
10:56 AM 77.0 °F 22.1 °F 13% 29.70 in 10.0 mi SSW 10.4 mph - N/A   Clear
11:56 AM 79.9 °F 21.0 °F 11% 29.66 in 10.0 mi SSW 12.7 mph 19.6 mph N/A   Clear
12:56 PM 82.9 °F 14.0 °F 8% 29.65 in 10.0 mi SSW 9.2 mph 18.4 mph N/A   Clear
1:56 PM 84.9 °F 15.1 °F 7% 29.62 in 10.0 mi SSW 11.5 mph 19.6 mph N/A   Clear
2:56 PM 83.8 °F 17.1 °F 8% 29.60 in 10.0 mi SSE 11.5 mph - N/A   Clear
3:56 PM 84.9 °F 21.0 °F 10% 29.58 in 10.0 mi Variable 3.5 mph - N/A   Clear
4:56 PM 84.9 °F 21.0 °F 10% 29.57 in 10.0 mi West 5.8 mph - N/A   Clear
5:56 PM 83.8 °F 22.1 °F 10% 29.58 in 10.0 mi West 10.4 mph - N/A   Clear
6:56 PM 81.9 °F 23.0 °F 11% 29.58 in 10.0 mi WSW 11.5 mph - N/A   Clear
7:56 PM 79.9 °F 23.0 °F 12% 29.59 in 10.0 mi WSW 10.4 mph - N/A   Clear
8:56 PM 75.9 °F 23.0 °F 14% 29.60 in 10.0 mi SSW 6.9 mph - N/A   Clear
9:56 PM 74.8 °F 34.9 °F 23% 29.61 in 10.0 mi SSW 18.4 mph - 0.00 in Rain Heavy Rain
10:56 PM 72.9 °F 36.0 °F 26% 29.62 in 10.0 mi South 13.8 mph - 0.00 in Rain Heavy Rain
11:56 PM 72.0 °F 36.0 °F 27% 29.63 in 10.0 mi SSW 16.1 mph - 0.00 in Rain Heavy Rain